Regional Weather Roundup
Issued by NWS

Home | Current Version | Previous Version | Text Only | Print | Product List | Glossary On
Versions: 1 2 3 4 5 6 7 8 9 10 11 12 13 14 15 16 17 18 19 20 21 22 23 24 25 26 27 28 29 30 31 32 33 34 35 36 37 38 39 40 41 42 43 44 45 46 47 48 49 50
000
ASUS43 KFSD 260510
RWRSD

WEATHER ROUNDUP FOR SOUTH DAKOTA
NATIONAL WEATHER SERVICE SIOUX FALLS SD
1200 AM CDT TUE MAY 26 2015

NOTE: "FAIR" INDICATES FEW OR NO CLOUDS BELOW 12,000 FEET WITH NO
SIGNIFICANT WEATHER AND/OR OBSTRUCTIONS TO VISIBILITY.


SDZ001>005-009-010-012>017-260600-
NORTHWEST AND NORTH CENTRAL SOUTH DAKOTA

CITY           SKY/WX    TMP DP  RH WIND       PRES   REMARKS
BUFFALO          N/A     52  50  93 SW5       29.88S
FAITH            N/A     53  50  89 CALM      29.93R
MOBRIDGE       PTCLDY    53  53 100 N3        29.89R
$$

SDZ012>016-024>037-041>051-057-063-072>074-260600-
SOUTHWEST AND SOUTH CENTRAL SOUTH DAKOTA

CITY           SKY/WX    TMP DP  RH WIND       PRES   REMARKS
RAPID CTY ARPT CLOUDY    53  51  93 N5        29.96R
PIERRE         CLOUDY    57  54  89 N8        29.89R
CUSTER         CLOUDY    48  45  89 CALM      29.99R
ELLSWORTH AFB  CLOUDY    53  53 100 N3        29.95
PHILIP         CLOUDY    56  54  93 N7        29.92R
PINE RIDGE     CLOUDY    54  51  90 NE6       29.94R
SPEARFISH      FAIR      45  45 100 CALM      29.97S
WINNER         MOCLDY    56  50  80 N8        29.88R
$$

SDZ004>011-016>023-039-040-260600-
NORTHEAST SOUTH DAKOTA

CITY           SKY/WX    TMP DP  RH WIND       PRES   REMARKS
ABERDEEN       CLEAR     53  49  86 NW3       29.88R
WATERTOWN      PTCLDY    51  48  89 N8        29.86R
BROOKINGS      PTCLDY    54  52  94 N6        29.84R
SISSETON         N/A     51  50  96 NW10      29.84S
$$

SDZ017-020-022-023-036>040-048>070-260600-
SOUTHEAST SOUTH DAKOTA

CITY           SKY/WX    TMP DP  RH WIND       PRES   REMARKS
SIOUX FALLS    MOCLDY    58  54  86 N8        29.82R
HURON          CLOUDY    54  50  86 N6        29.87R
CHAMBERLAIN    CLOUDY    56  49  77 N7        29.88R
MITCHELL       MOCLDY    57  54  89 N7        29.85R
YANKTON        CLOUDY    63  59  88 CALM      29.80F
$$

ABBREVIATIONS USED IN REMARKS
   TC - TEMPERATURE IN CELSIUS
  WCI - WIND CHILL INDEX
   HX - HEAT INDEX
  VSB - VISIBILITY



USA.gov is the U.S. government's official web portal to all federal, state and local government web resources and services.